Tracking 31013 objects as of 11-Jul-2025
HD Live streaming from Space Station
objects crossing your sky now

OBJECT F

Track OBJECT F now!
10-day predictions


NORAD ID: 60750
Int'l Code: 2024-153F
Perigee: 488.6 km
Apogee: 506.1 km
Inclination: 97.6 °
Period: 94.4 minutes
Semi major axis: 6868 km
RCS: Unknown
Launch date: August 29, 2024
Source: People's Republic of China (PRC)
Launch site: Yellow Sea Launch Area, China (YSLA)
Your satellite tracking list
Your tracking list is empty




NASA's NSSDC Master Catalog

Two Line Element Set (TLE):
1 60750U 24153F   25192.20821508  .00008246  00000-0  33089-3 0  9994
2 60750  97.6366 318.1612 0012775 280.0528  79.9268 15.25182962 47953
Source of the keplerian elements: AFSPC